Location: Aulagny
(45.1643°N, 4.3096°E)
Time: 03:33:20
(UTC+00:00)

SKYMED 2 - Pass Details

Date: 21 October 2019
Orbit: 622 x 623 km, 97.9° (Epoch: 18 November)

Event Time Altitude Azimuth Distance (km) Brightness Sun altitude
Rises 17:38:26 0° 16° (NNE) 2,913 6.8 -9.6°
Reaches altitude 10° 17:40:40 10° 20° (NNE) 2,002 5.9 -9.9°
Maximum altitude 17:44:59 62° 101° (E) 704 3.6 -10.7°
Drops below altitude 10° 17:49:16 10° 182° (S) 1,985 6.2 -11.5°
Sets 17:51:28 0° 186° (S) 2,886 7.1 -11.8°
